{"data":{"norad_id":58012,"epoch":"2026-05-24T23:09:24.228000Z","epoch_age_seconds":77956,"freshness":"FRESH","line1":"1 58012U 23153X   26144.96486375  .00000131  00000+0  14282-4 0  9990","line2":"2 58012  43.0056 356.1071 0000902 276.4316  83.6433 15.27580366146561","mean_motion":15.27580366,"eccentricity":9.02e-5,"inclination_deg":43.0056,"raan_deg":356.1071,"arg_perigee_deg":276.4316,"mean_anomaly_deg":83.6433,"bstar":1.4282e-5,"rev_number":14656,"period_min":94.266726127848,"perigee_km":482.42912121719,"apogee_km":483.66687899121,"semimajor_km":6861.1850001042,"source":"CELESTRAK","updated_at":"2026-05-25T13:38:18.493653Z"}}